TimeMST,TemperatureF,Dew PointF,Humidity,Sea Level PressureIn,VisibilityMPH,Wind Direction,Wind SpeedMPH,Gust SpeedMPH,PrecipitationIn,Events,Conditions,WindDirDegrees,DateUTC
5:00 AM,11,8,83,30.29,2,SSE,10.4,,,,Mist,150,2013-01-23 12:00:00
5:00 AM,10.4,8.6,92,30.28,1.8,SE,11.5,-,N/A,,Overcast,140,2013-01-23 12:00:00
6:00 AM,10.4,8.6,92,30.26,1.5,SE,11.5,-,N/A,,Overcast,140,2013-01-23 13:00:00
7:00 AM,10.4,8.6,92,30.25,1.5,SSE,9.2,-,N/A,,Overcast,150,2013-01-23 14:00:00
8:00 AM,10.4,6.8,85,30.24,1.0,SE,13.8,-,N/A,,Overcast,140,2013-01-23 15:00:00
9:00 AM,8.6,6.8,92,30.25,1.5,SE,15.0,-,N/A,,Overcast,130,2013-01-23 16:00:00
9:29 AM,8.6,6.8,92,30.24,1.5,SE,11.5,18.4,N/A,Snow,Light Snow,140,2013-01-23 16:29:00
10:00 AM,8.6,6.8,92,30.24,1.5,SE,11.5,18.4,N/A,Snow,Light Snow,140,2013-01-23 17:00:00
11:00 AM,8,4,77,30.22,2,SE,15.0,,,Snow,Light Snow,140,2013-01-23 18:00:00
11:00 AM,6.8,5.0,92,30.22,2.0,SE,16.1,-,N/A,Snow,Light Snow,140,2013-01-23 18:00:00
12:00 PM,8.6,5.0,85,30.19,2.5,SSE,12.7,20.7,N/A,Snow,Light Snow,150,2013-01-23 19:00:00
12:25 PM,8.6,5.0,85,30.18,3.0,SSE,15.0,-,N/A,Snow,Light Snow,150,2013-01-23 19:25:00
1:00 PM,8.6,5.0,85,30.14,3.0,SSE,16.1,-,N/A,,Overcast,150,2013-01-23 20:00:00
1:27 PM,8.6,5.0,85,30.14,4.0,SSE,17.3,-,N/A,,Overcast,150,2013-01-23 20:27:00
2:00 PM,8.6,5.0,85,30.12,4.0,SSE,17.3,-,N/A,,Overcast,150,2013-01-23 21:00:00
3:00 PM,6.8,3.2,85,30.09,5.0,SE,13.8,-,N/A,,Overcast,140,2013-01-23 22:00:00
4:00 PM,6.8,3.2,85,30.06,5.0,SE,15.0,-,N/A,,Overcast,140,2013-01-23 23:00:00
4:52 PM,6.8,3.2,85,30.04,5.0,SE,11.5,-,N/A,Snow,Light Snow,140,2013-01-23 23:52:00
5:00 PM,7,4,81,30.03,5,SE,11.5,,,Snow,Light Snow,140,2013-01-24 00:00:00
5:00 PM,6.8,3.2,85,30.03,5.0,SE,10.4,-,N/A,Snow,Light Snow,130,2013-01-24 00:00:00
5:17 PM,6.8,5.0,92,30.01,4.0,SE,10.4,-,N/A,,Overcast,130,2013-01-24 00:17:00
7:00 PM,8.6,5.0,85,29.95,4.0,SE,8.1,-,N/A,,Overcast,140,2013-01-24 02:00:00
8:00 PM,8.6,6.8,92,29.92,4.0,SSE,6.9,-,N/A,,Overcast,150,2013-01-24 03:00:00
9:00 PM,10.4,6.8,85,29.89,4.0,SSE,3.5,-,N/A,,Overcast,160,2013-01-24 04:00:00
10:00 PM,8.6,6.8,92,29.61,5.0,West,2.3,-,N/A,,Mostly Cloudy,260,2013-01-24 05:00:00